Volver al catálogo

STARLINK-35704

ActivoComunicacionesVLEO
NORAD 66221·PAYLOAD·🇺🇸 United States

Lanzado Oct 28, 2025 desde Vandenberg Space Force Base

Loading…

Próximos Pases (próximas 24 horas)

TLE

ActualizadoSource: CelesTrak SupGP

Época: Sep 15, 2026, 03:13 UTC

1 66221C 25244R   26258.13451389 -.00027940  00000+0 -82522-3 0  2584
2 66221  53.1598  68.6330 0000860  93.7884 246.9986 15.34414921    18

Sigue STARLINK-35704 en tiempo real con AllMySat

Download on the App Store